Regional Weather Roundup
Issued by NWS Charleston, WV

Home | Current Version | Previous Version | Text Only | Print | Product List | Glossary On
Versions: 1 2 3 4 5 6 7 8 9 10 11 12 13 14 15 16 17 18 19 20 21 22 23 24 25 26 27 28 29 30 31 32 33 34 35 36 37 38 39 40 41 42 43 44 45 46 47 48 49 50
000
ASUS41 KRLX 260010
RWRRLX
West Virginia Regional Weather Roundup
National Weather Service Charleston WV
700 PM EST TUE NOV 25 2014

Note: "fair" indicates few or no clouds below 12,000 feet with no
significant weather and/or obstructions to visibility.

WVZ003-260100-
Northern Panhandle of West Virginia

CITY           SKY/WX    TMP DP  RH WIND       PRES   REMARKS
WHEELING       CLEAR     36  25  64 N5        30.14R
$$

WVZ009-260100-
Northwest West Virginia

CITY           SKY/WX    TMP DP  RH WIND       PRES   REMARKS
PARKERSBURG    CLEAR     41  28  60 N5        30.17R
$$

WVZ006-260100-
Western West Virginia

CITY           SKY/WX    TMP DP  RH WIND       PRES   REMARKS
HUNTINGTON     CLEAR     44  28  53 N6        30.11R
$$

WVZ015-260100-
West Central West Virginia

CITY           SKY/WX    TMP DP  RH WIND       PRES   REMARKS
CHARLESTON     CLOUDY    48  26  42 CALM      30.10R
$$

WVZ022-031-260100-
North Central West Virginia

CITY           SKY/WX    TMP DP  RH WIND       PRES   REMARKS
CLARKSBURG     CLEAR     43  27  53 CALM      30.11R
MORGANTOWN     CLEAR     45  24  43 CALM      30.11R
$$

WVZ025-035-042-045-260100-
Southern West Virginia

CITY           SKY/WX    TMP DP  RH WIND       PRES   REMARKS
BECKLEY        CLEAR     40  23  50 CALM      30.07R
LOGAN            N/A     48  25  40 CALM      30.08S
BLUEFIELD      PTCLDY    46  21  37 CALM      30.09R
LEWISBURG      MOCLDY    42  24  48 CALM      30.09R
$$

WVZ047-260100-
Northern Mountains of West Virginia

CITY           SKY/WX    TMP DP  RH WIND       PRES   REMARKS
ELKINS         MOCLDY    32  26  78 CALM      30.11R
$$

WVZ052-260100-
Eastern Panhandle of West Virginia

CITY           SKY/WX    TMP DP  RH WIND       PRES   REMARKS
MARTINSBURG    PTCLDY    41  26  55 CALM      30.10R
PETERSBURG     PTCLDY    38  27  65 CALM      30.10R
$$



USA.gov is the U.S. government's official web portal to all federal, state and local government web resources and services.